Year,Month,Day,Hour,Minute,Value (Times are PST for temperature in C)
2015,07,18,00,00,15.30
2015,07,18,00,01,15.30
2015,07,18,00,02,15.30
2015,07,18,00,03,15.30
2015,07,18,00,04,15.30
2015,07,18,00,05,15.30
2015,07,18,00,06,15.20
2015,07,18,00,07,15.20
2015,07,18,00,08,15.20
2015,07,18,00,09,15.20
2015,07,18,00,10,15.20
2015,07,18,00,11,15.20
2015,07,18,00,12,15.20
2015,07,18,00,13,15.20
2015,07,18,00,14,15.10
2015,07,18,00,15,15.10
2015,07,18,00,16,15.00
2015,07,18,00,17,15.00
2015,07,18,00,18,15.00
2015,07,18,00,19,15.00
2015,07,18,00,20,15.00
2015,07,18,00,21,15.00
2015,07,18,00,22,15.00
2015,07,18,00,23,15.00
2015,07,18,00,24,15.00
2015,07,18,00,25,15.00
2015,07,18,00,26,15.00
2015,07,18,00,27,15.00
2015,07,18,00,28,15.00
2015,07,18,00,29,15.00
2015,07,18,00,30,15.00
2015,07,18,00,31,15.00
2015,07,18,00,32,15.00
2015,07,18,00,33,15.00
2015,07,18,00,34,15.00
2015,07,18,00,35,15.00
2015,07,18,00,36,15.00
2015,07,18,00,37,14.90
2015,07,18,00,38,14.90
2015,07,18,00,39,14.90
2015,07,18,00,40,14.80
2015,07,18,00,41,14.80
2015,07,18,00,42,14.80
2015,07,18,00,43,14.80
2015,07,18,00,44,14.80
2015,07,18,00,45,14.80
2015,07,18,00,46,14.80
2015,07,18,00,47,14.80
2015,07,18,00,48,14.80
2015,07,18,00,49,14.80
2015,07,18,00,50,14.80
2015,07,18,00,51,14.70
2015,07,18,00,52,14.70
2015,07,18,00,53,14.70
2015,07,18,00,54,14.70
2015,07,18,00,55,14.70
2015,07,18,00,56,14.70
2015,07,18,00,57,14.70
2015,07,18,00,58,14.70
2015,07,18,00,59,14.70
2015,07,18,01,00,14.70
2015,07,18,01,01,14.70
2015,07,18,01,02,14.70
2015,07,18,01,03,14.60
2015,07,18,01,04,14.60
2015,07,18,01,05,14.60
2015,07,18,01,06,14.60
2015,07,18,01,07,14.60
2015,07,18,01,08,14.60
2015,07,18,01,09,14.60
2015,07,18,01,10,14.60
2015,07,18,01,11,14.60
2015,07,18,01,12,14.50
2015,07,18,01,13,14.50
2015,07,18,01,14,14.50
2015,07,18,01,15,14.50
2015,07,18,01,16,14.50
2015,07,18,01,17,14.50
2015,07,18,01,18,14.40
2015,07,18,01,19,14.40
2015,07,18,01,20,14.40
2015,07,18,01,21,14.40
2015,07,18,01,22,14.40
2015,07,18,01,23,14.40
2015,07,18,01,24,14.30
2015,07,18,01,25,14.30
2015,07,18,01,26,14.30
2015,07,18,01,27,14.30
2015,07,18,01,28,14.30
2015,07,18,01,29,14.30
2015,07,18,01,30,14.30
2015,07,18,01,31,14.30
2015,07,18,01,32,14.30
2015,07,18,01,33,14.30
2015,07,18,01,34,14.20
2015,07,18,01,35,14.20
2015,07,18,01,36,14.20
2015,07,18,01,37,14.20
2015,07,18,01,38,14.20
2015,07,18,01,39,14.20
2015,07,18,01,40,14.20
2015,07,18,01,41,14.20
2015,07,18,01,42,14.10
2015,07,18,01,43,14.10
2015,07,18,01,44,14.10
2015,07,18,01,45,14.10
2015,07,18,01,46,14.10
2015,07,18,01,47,14.10
2015,07,18,01,48,14.10
2015,07,18,01,49,14.10
2015,07,18,01,50,14.10
2015,07,18,01,51,14.10
2015,07,18,01,52,14.00
2015,07,18,01,53,14.00
2015,07,18,01,54,14.00
2015,07,18,01,55,14.00
2015,07,18,01,56,14.00
2015,07,18,01,57,14.00
2015,07,18,01,58,14.00
2015,07,18,01,59,13.90
2015,07,18,02,00,13.90
2015,07,18,02,01,13.90
2015,07,18,02,02,13.90
2015,07,18,02,03,13.90
2015,07,18,02,04,13.90
2015,07,18,02,05,13.90
2015,07,18,02,06,13.90
2015,07,18,02,07,13.80
2015,07,18,02,08,13.80
2015,07,18,02,09,13.80
2015,07,18,02,10,13.80
2015,07,18,02,11,13.80
2015,07,18,02,12,13.80
2015,07,18,02,13,13.80
2015,07,18,02,14,13.80
2015,07,18,02,15,13.80
2015,07,18,02,16,13.80
2015,07,18,02,17,13.80
2015,07,18,02,18,13.80
2015,07,18,02,19,13.80
2015,07,18,02,20,13.80
2015,07,18,02,21,13.70
2015,07,18,02,22,13.70
2015,07,18,02,23,13.70
2015,07,18,02,24,13.70
2015,07,18,02,25,13.70
2015,07,18,02,26,13.70
2015,07,18,02,27,13.70
2015,07,18,02,28,13.70
2015,07,18,02,29,13.70
2015,07,18,02,30,13.70
2015,07,18,02,31,13.70
2015,07,18,02,32,13.70
2015,07,18,02,33,13.70
2015,07,18,02,34,13.70
2015,07,18,02,35,13.60
2015,07,18,02,36,13.60
2015,07,18,02,37,13.60
2015,07,18,02,38,13.60
2015,07,18,02,39,13.60
2015,07,18,02,40,13.60
2015,07,18,02,41,13.50
2015,07,18,02,42,13.50
2015,07,18,02,43,13.50
2015,07,18,02,44,13.50
2015,07,18,02,45,13.50
2015,07,18,02,46,13.50
2015,07,18,02,47,13.50
2015,07,18,02,48,13.50
2015,07,18,02,49,13.50
2015,07,18,02,50,13.40
2015,07,18,02,51,13.40
2015,07,18,02,52,13.40
2015,07,18,02,53,13.40
2015,07,18,02,54,13.40
2015,07,18,02,55,13.40
2015,07,18,02,56,13.40
2015,07,18,02,57,13.30
2015,07,18,02,58,13.30
2015,07,18,02,59,13.30
2015,07,18,03,00,13.30
2015,07,18,03,01,13.30
2015,07,18,03,02,13.30
2015,07,18,03,03,13.30
2015,07,18,03,04,13.30
2015,07,18,03,05,13.30
2015,07,18,03,06,13.30
2015,07,18,03,07,13.30
2015,07,18,03,08,13.30
2015,07,18,03,09,13.30
2015,07,18,03,10,13.30
2015,07,18,03,11,13.30
2015,07,18,03,12,13.30
2015,07,18,03,13,13.30
2015,07,18,03,14,13.30
2015,07,18,03,15,13.30
2015,07,18,03,16,13.30
2015,07,18,03,17,13.30
2015,07,18,03,18,13.20
2015,07,18,03,19,13.20
2015,07,18,03,20,13.20
2015,07,18,03,21,13.20
2015,07,18,03,22,13.20
2015,07,18,03,23,13.20
2015,07,18,03,24,13.20
2015,07,18,03,25,13.10
2015,07,18,03,26,13.10
2015,07,18,03,27,13.10
2015,07,18,03,28,13.10
2015,07,18,03,29,13.10
2015,07,18,03,30,13.10
2015,07,18,03,31,13.10
2015,07,18,03,32,13.10
2015,07,18,03,33,13.10
2015,07,18,03,34,13.10
2015,07,18,03,35,13.10
2015,07,18,03,36,13.10
2015,07,18,03,37,13.10
2015,07,18,03,38,13.00
2015,07,18,03,39,13.00
2015,07,18,03,40,13.00
2015,07,18,03,41,13.00
2015,07,18,03,42,13.00
2015,07,18,03,43,12.90
2015,07,18,03,44,12.90
2015,07,18,03,45,12.90
2015,07,18,03,46,12.90
2015,07,18,03,47,12.90
2015,07,18,03,48,12.90
2015,07,18,03,49,12.90
2015,07,18,03,50,12.90
2015,07,18,03,51,12.90
2015,07,18,03,52,12.90
2015,07,18,03,53,12.80
2015,07,18,03,54,12.80
2015,07,18,03,55,12.80
2015,07,18,03,56,12.80
2015,07,18,03,57,12.80
2015,07,18,03,58,12.80
2015,07,18,03,59,12.80
2015,07,18,04,00,12.80
2015,07,18,04,01,12.80
2015,07,18,04,02,12.80
2015,07,18,04,03,12.80
2015,07,18,04,04,12.80
2015,07,18,04,05,12.80
2015,07,18,04,06,12.80
2015,07,18,04,07,12.80
2015,07,18,04,08,12.80
2015,07,18,04,09,12.80
2015,07,18,04,10,12.80
2015,07,18,04,11,12.80
2015,07,18,04,12,12.70
2015,07,18,04,13,12.70
2015,07,18,04,14,12.70
2015,07,18,04,15,12.70
2015,07,18,04,16,12.70
2015,07,18,04,17,12.70
2015,07,18,04,18,12.70
2015,07,18,04,19,12.70
2015,07,18,04,20,12.70
2015,07,18,04,21,12.70
2015,07,18,04,22,12.70
2015,07,18,04,23,12.70
2015,07,18,04,24,12.70
2015,07,18,04,25,12.70
2015,07,18,04,26,12.60
2015,07,18,04,27,12.60
2015,07,18,04,28,12.60
2015,07,18,04,29,12.60
2015,07,18,04,30,12.60
2015,07,18,04,31,12.60
2015,07,18,04,32,12.60
2015,07,18,04,33,12.60
2015,07,18,04,34,12.60
2015,07,18,04,35,12.60
2015,07,18,04,36,12.60
2015,07,18,04,37,12.60
2015,07,18,04,38,12.60
2015,07,18,04,39,12.60
2015,07,18,04,40,12.60
2015,07,18,04,41,12.50
2015,07,18,04,42,12.50
2015,07,18,04,43,12.50
2015,07,18,04,44,12.50
2015,07,18,04,45,12.50
2015,07,18,04,46,12.50
2015,07,18,04,47,12.50
2015,07,18,04,48,12.50
2015,07,18,04,49,12.40
2015,07,18,04,50,12.40
2015,07,18,04,51,12.40
2015,07,18,04,52,12.40
2015,07,18,04,53,12.40
2015,07,18,04,54,12.40
2015,07,18,04,55,12.40
2015,07,18,04,56,12.30
2015,07,18,04,57,12.30
2015,07,18,04,58,12.30
2015,07,18,04,59,12.30
2015,07,18,05,00,12.30
2015,07,18,05,01,12.30
2015,07,18,05,02,12.30
2015,07,18,05,03,12.30
2015,07,18,05,04,12.30
2015,07,18,05,05,12.30
2015,07,18,05,06,12.30
2015,07,18,05,07,12.30
2015,07,18,05,08,12.30
2015,07,18,05,09,12.30
2015,07,18,05,10,12.30
2015,07,18,05,11,12.30
2015,07,18,05,12,12.30
2015,07,18,05,13,12.30
2015,07,18,05,14,12.30
2015,07,18,05,15,12.30
2015,07,18,05,16,12.20
2015,07,18,05,17,12.20
2015,07,18,05,18,12.30
2015,07,18,05,19,12.20
2015,07,18,05,20,12.20
2015,07,18,05,21,12.20
2015,07,18,05,22,12.20
2015,07,18,05,23,12.20
2015,07,18,05,24,12.20
2015,07,18,05,25,12.20
2015,07,18,05,26,12.20
2015,07,18,05,27,12.20
2015,07,18,05,28,12.20
2015,07,18,05,29,12.20
2015,07,18,05,30,12.20
2015,07,18,05,31,12.20
2015,07,18,05,32,12.20
2015,07,18,05,33,12.20
2015,07,18,05,34,12.10
2015,07,18,05,35,12.10
2015,07,18,05,36,12.10
2015,07,18,05,37,12.10
2015,07,18,05,38,12.10
2015,07,18,05,39,12.10
2015,07,18,05,40,12.10
2015,07,18,05,41,12.10
2015,07,18,05,42,12.10
2015,07,18,05,43,12.20
2015,07,18,05,44,12.20
2015,07,18,05,45,12.20
2015,07,18,05,46,12.20
2015,07,18,05,47,12.20
2015,07,18,05,48,12.20
2015,07,18,05,49,12.20
2015,07,18,05,50,12.20
2015,07,18,05,51,12.20
2015,07,18,05,52,12.20
2015,07,18,05,53,12.20
2015,07,18,05,54,12.20
2015,07,18,05,55,12.20
2015,07,18,05,56,12.20
2015,07,18,05,57,12.20
2015,07,18,05,58,12.30
2015,07,18,05,59,12.30
2015,07,18,06,00,12.30
2015,07,18,06,01,12.30
2015,07,18,06,02,12.30
2015,07,18,06,03,12.30
2015,07,18,06,04,12.30
2015,07,18,06,05,12.30
2015,07,18,06,06,12.30
2015,07,18,06,07,12.30
2015,07,18,06,08,12.30
2015,07,18,06,09,12.30
2015,07,18,06,10,12.30
2015,07,18,06,11,12.40
2015,07,18,06,12,12.40
2015,07,18,06,13,12.40
2015,07,18,06,14,12.40
2015,07,18,06,15,12.40
2015,07,18,06,16,12.40
2015,07,18,06,17,12.40
2015,07,18,06,18,12.40
2015,07,18,06,19,12.40
2015,07,18,06,20,12.40
2015,07,18,06,21,12.40
2015,07,18,06,22,12.50
2015,07,18,06,23,12.50
2015,07,18,06,24,12.50
2015,07,18,06,25,12.50
2015,07,18,06,26,12.50
2015,07,18,06,27,12.50
2015,07,18,06,28,12.50
2015,07,18,06,29,12.50
2015,07,18,06,30,12.60
2015,07,18,06,31,12.60
2015,07,18,06,32,12.60
2015,07,18,06,33,12.60
2015,07,18,06,34,12.60
2015,07,18,06,35,12.60
2015,07,18,06,36,12.60
2015,07,18,06,37,12.60
2015,07,18,06,38,12.60
2015,07,18,06,39,12.60
2015,07,18,06,40,12.60
2015,07,18,06,41,12.60
2015,07,18,06,42,12.60
2015,07,18,06,43,12.60
2015,07,18,06,44,12.60
2015,07,18,06,45,12.70
2015,07,18,06,46,12.70
2015,07,18,06,47,12.70
2015,07,18,06,48,12.70
2015,07,18,06,49,12.70
2015,07,18,06,50,12.70
2015,07,18,06,51,12.70
2015,07,18,06,52,12.70
2015,07,18,06,53,12.70
2015,07,18,06,54,12.80
2015,07,18,06,55,12.80
2015,07,18,06,56,12.80
2015,07,18,06,57,12.80
2015,07,18,06,58,12.80
2015,07,18,06,59,12.80
2015,07,18,07,00,12.90
2015,07,18,07,01,12.90
2015,07,18,07,02,12.90
2015,07,18,07,03,12.90
2015,07,18,07,04,12.90
2015,07,18,07,05,13.00
2015,07,18,07,06,13.00
2015,07,18,07,07,13.10
2015,07,18,07,08,13.10
2015,07,18,07,09,13.10
2015,07,18,07,10,13.10
2015,07,18,07,11,13.20
2015,07,18,07,12,13.20
2015,07,18,07,13,13.20
2015,07,18,07,14,13.30
2015,07,18,07,15,13.30
2015,07,18,07,16,13.40
2015,07,18,07,17,13.40
2015,07,18,07,18,13.50
2015,07,18,07,19,13.50
2015,07,18,07,20,13.60
2015,07,18,07,21,13.60
2015,07,18,07,22,13.70
2015,07,18,07,23,13.70
2015,07,18,07,24,13.80
2015,07,18,07,25,13.80
2015,07,18,07,26,13.90
2015,07,18,07,27,13.90
2015,07,18,07,28,14.00
2015,07,18,07,29,14.10
2015,07,18,07,30,14.20
2015,07,18,07,31,14.30
2015,07,18,07,32,14.40
2015,07,18,07,33,14.60
2015,07,18,07,34,14.70
2015,07,18,07,35,14.90
2015,07,18,07,36,15.00
2015,07,18,07,37,15.00
2015,07,18,07,38,15.20
2015,07,18,07,39,15.30
2015,07,18,07,40,15.50
2015,07,18,07,41,15.70
2015,07,18,07,42,15.80
2015,07,18,07,43,16.00
2015,07,18,07,44,16.10
2015,07,18,07,45,16.30
2015,07,18,07,46,16.50
2015,07,18,07,47,16.70
2015,07,18,07,48,16.80
2015,07,18,07,49,17.00
2015,07,18,07,50,17.20
2015,07,18,07,51,17.40
2015,07,18,07,52,17.50
2015,07,18,07,53,17.70
2015,07,18,07,54,18.00
2015,07,18,07,55,18.20
2015,07,18,07,56,18.40
2015,07,18,07,57,18.70
2015,07,18,07,58,19.00
2015,07,18,07,59,19.20
2015,07,18,08,00,19.40
2015,07,18,08,01,19.60
2015,07,18,08,02,19.80
2015,07,18,08,03,20.00
2015,07,18,08,04,20.20
2015,07,18,08,05,20.40
2015,07,18,08,06,20.60
2015,07,18,08,07,20.80
2015,07,18,08,08,21.00
2015,07,18,08,09,21.10
2015,07,18,08,10,21.20
2015,07,18,08,11,21.30
2015,07,18,08,12,21.50
2015,07,18,08,13,21.60
2015,07,18,08,14,21.70
2015,07,18,08,15,21.80
2015,07,18,08,16,21.90
2015,07,18,08,17,22.00
2015,07,18,08,18,22.10
2015,07,18,08,19,22.10
2015,07,18,08,20,22.20
2015,07,18,08,21,22.20
2015,07,18,08,22,22.30
2015,07,18,08,23,22.30
2015,07,18,08,24,22.40
2015,07,18,08,25,22.40
2015,07,18,08,26,22.50
2015,07,18,08,27,22.50
2015,07,18,08,28,22.60
2015,07,18,08,29,22.60
2015,07,18,08,30,22.60
2015,07,18,08,31,22.70
2015,07,18,08,32,22.80
2015,07,18,08,33,22.80
2015,07,18,08,34,22.80
2015,07,18,08,35,22.80
2015,07,18,08,36,22.90
2015,07,18,08,37,22.90
2015,07,18,08,38,23.00
2015,07,18,08,39,23.10
2015,07,18,08,40,23.10
2015,07,18,08,41,23.20
2015,07,18,08,42,23.30
2015,07,18,08,43,23.40
2015,07,18,08,44,23.40
2015,07,18,08,45,23.40
2015,07,18,08,46,23.40
2015,07,18,08,47,23.50
2015,07,18,08,48,23.50
2015,07,18,08,49,23.60
2015,07,18,08,50,23.60
2015,07,18,08,51,23.70
2015,07,18,08,52,23.70
2015,07,18,08,53,23.70
2015,07,18,08,54,23.80
2015,07,18,08,55,23.80
2015,07,18,08,56,23.80
2015,07,18,08,57,23.80
2015,07,18,08,58,23.90
2015,07,18,08,59,23.90
2015,07,18,09,00,23.80
2015,07,18,09,01,23.80
2015,07,18,09,02,23.80
2015,07,18,09,03,23.80
2015,07,18,09,04,23.80
2015,07,18,09,05,23.90
2015,07,18,09,06,23.90
2015,07,18,09,07,23.90
2015,07,18,09,08,23.90
2015,07,18,09,09,23.90
2015,07,18,09,10,23.80
2015,07,18,09,11,23.70
2015,07,18,09,12,23.70
2015,07,18,09,13,23.60
2015,07,18,09,14,23.50
2015,07,18,09,15,23.40
2015,07,18,09,16,23.40
2015,07,18,09,17,23.30
2015,07,18,09,18,23.30
2015,07,18,09,19,23.20
2015,07,18,09,20,23.20
2015,07,18,09,21,23.10
2015,07,18,09,22,23.10
2015,07,18,09,23,23.10
2015,07,18,09,24,23.10
2015,07,18,09,25,23.20
2015,07,18,09,26,23.20
2015,07,18,09,27,23.30
2015,07,18,09,28,23.50
2015,07,18,09,29,23.60
2015,07,18,09,30,23.80
2015,07,18,09,31,23.90
2015,07,18,09,32,24.00
2015,07,18,09,33,24.10
2015,07,18,09,34,24.20
2015,07,18,09,35,24.30
2015,07,18,09,36,24.40
2015,07,18,09,37,24.50
2015,07,18,09,38,24.60
2015,07,18,09,39,24.70
2015,07,18,09,40,24.70
2015,07,18,09,41,24.80
2015,07,18,09,42,24.80
2015,07,18,09,43,24.90
2015,07,18,09,44,24.90
2015,07,18,09,45,25.00
2015,07,18,09,46,25.10
2015,07,18,09,47,25.20
2015,07,18,09,48,25.30
2015,07,18,09,49,25.40
2015,07,18,09,50,25.50
2015,07,18,09,51,25.60
2015,07,18,09,52,25.60
2015,07,18,09,53,25.50
2015,07,18,09,54,25.50
2015,07,18,09,55,25.50
2015,07,18,09,56,25.60
2015,07,18,09,57,25.50
2015,07,18,09,58,25.50
2015,07,18,09,59,25.40
2015,07,18,10,00,25.30
2015,07,18,10,01,25.20
2015,07,18,10,02,25.10
2015,07,18,10,03,25.10
2015,07,18,10,04,25.20
2015,07,18,10,05,25.20
2015,07,18,10,06,25.20
2015,07,18,10,07,25.30
2015,07,18,10,08,25.30
2015,07,18,10,09,25.40
2015,07,18,10,10,25.50
2015,07,18,10,11,25.60
2015,07,18,10,12,25.70
2015,07,18,10,13,25.80
2015,07,18,10,14,25.90
2015,07,18,10,15,25.90
2015,07,18,10,16,26.00
2015,07,18,10,17,26.10
2015,07,18,10,18,26.20
2015,07,18,10,19,26.20
2015,07,18,10,20,26.20
2015,07,18,10,21,26.20
2015,07,18,10,22,26.20
2015,07,18,10,23,26.30
2015,07,18,10,24,26.20
2015,07,18,10,25,26.20
2015,07,18,10,26,26.20
2015,07,18,10,27,26.10
2015,07,18,10,28,26.10
2015,07,18,10,29,26.20
2015,07,18,10,30,26.20
2015,07,18,10,31,26.20
2015,07,18,10,32,26.20
2015,07,18,10,33,26.20
2015,07,18,10,34,26.30
2015,07,18,10,35,26.40
2015,07,18,10,36,26.40
2015,07,18,10,37,26.40
2015,07,18,10,38,26.40
2015,07,18,10,39,26.40
2015,07,18,10,40,26.40
2015,07,18,10,41,26.40
2015,07,18,10,42,26.50
2015,07,18,10,43,26.40
2015,07,18,10,44,26.30
2015,07,18,10,45,26.20
2015,07,18,10,46,26.20
2015,07,18,10,47,26.10
2015,07,18,10,48,26.00
2015,07,18,10,49,25.90
2015,07,18,10,50,25.90
2015,07,18,10,51,25.90
2015,07,18,10,52,25.80
2015,07,18,10,53,25.80
2015,07,18,10,54,25.70
2015,07,18,10,55,25.70
2015,07,18,10,56,25.70
2015,07,18,10,57,25.70
2015,07,18,10,58,25.70
2015,07,18,10,59,25.80
2015,07,18,11,00,25.80
2015,07,18,11,01,25.80
2015,07,18,11,02,25.80
2015,07,18,11,03,25.80
2015,07,18,11,04,25.80
2015,07,18,11,05,25.90
2015,07,18,11,06,25.90
2015,07,18,11,07,25.90
2015,07,18,11,08,25.90
2015,07,18,11,09,25.90
2015,07,18,11,10,25.90
2015,07,18,11,11,25.90
2015,07,18,11,12,26.00
2015,07,18,11,13,26.00
2015,07,18,11,14,26.10
2015,07,18,11,15,26.20
2015,07,18,11,16,26.20
2015,07,18,11,17,26.30
2015,07,18,11,18,26.30
2015,07,18,11,19,26.30
2015,07,18,11,20,26.30
2015,07,18,11,21,26.30
2015,07,18,11,22,26.30
2015,07,18,11,23,26.30
2015,07,18,11,24,26.30
2015,07,18,11,25,26.30
2015,07,18,11,26,26.30
2015,07,18,11,27,26.30
2015,07,18,11,28,26.30
2015,07,18,11,29,26.30
2015,07,18,11,30,26.40
2015,07,18,11,31,26.40
2015,07,18,11,32,26.50
2015,07,18,11,33,26.60
2015,07,18,11,34,26.60
2015,07,18,11,35,26.60
2015,07,18,11,36,26.60
2015,07,18,11,37,26.60
2015,07,18,11,38,26.70
2015,07,18,11,39,26.80
2015,07,18,11,40,26.80
2015,07,18,11,41,26.80
2015,07,18,11,42,26.80
2015,07,18,11,43,26.80
2015,07,18,11,44,26.80
2015,07,18,11,45,26.70
2015,07,18,11,46,26.70
2015,07,18,11,47,26.60
2015,07,18,11,48,26.60
2015,07,18,11,49,26.40
2015,07,18,11,50,26.40
2015,07,18,11,51,26.40
2015,07,18,11,52,26.40
2015,07,18,11,53,26.50
2015,07,18,11,54,26.60
2015,07,18,11,55,26.70
2015,07,18,11,56,26.90
2015,07,18,11,57,27.00
2015,07,18,11,58,27.10
2015,07,18,11,59,27.20
2015,07,18,12,00,27.20
2015,07,18,12,01,27.20
2015,07,18,12,02,27.30
2015,07,18,12,03,27.30
2015,07,18,12,04,27.30
2015,07,18,12,05,27.30
2015,07,18,12,06,27.40
2015,07,18,12,07,27.50
2015,07,18,12,08,27.60
2015,07,18,12,09,27.60
2015,07,18,12,10,27.60
2015,07,18,12,11,27.70
2015,07,18,12,12,27.70
2015,07,18,12,13,27.70
2015,07,18,12,14,27.70
2015,07,18,12,15,27.70
2015,07,18,12,16,27.70
2015,07,18,12,17,27.80
2015,07,18,12,18,27.80
2015,07,18,12,19,27.90
2015,07,18,12,20,27.80
2015,07,18,12,21,27.80
2015,07,18,12,22,27.90
2015,07,18,12,23,27.90
2015,07,18,12,24,28.00
2015,07,18,12,25,28.10
2015,07,18,12,26,28.20
2015,07,18,12,27,28.20
2015,07,18,12,28,28.30
2015,07,18,12,29,28.40
2015,07,18,12,30,28.40
2015,07,18,12,31,28.40
2015,07,18,12,32,28.40
2015,07,18,12,33,28.40
2015,07,18,12,34,28.40
2015,07,18,12,35,28.40
2015,07,18,12,36,28.40
2015,07,18,12,37,28.30
2015,07,18,12,38,28.30
2015,07,18,12,39,28.20
2015,07,18,12,40,28.20
2015,07,18,12,41,28.20
2015,07,18,12,42,28.30
2015,07,18,12,43,28.30
2015,07,18,12,44,28.40
2015,07,18,12,45,28.50
2015,07,18,12,46,28.60
2015,07,18,12,47,28.70
2015,07,18,12,48,28.80
2015,07,18,12,49,28.80
2015,07,18,12,50,28.80
2015,07,18,12,51,28.90
2015,07,18,12,52,28.90
2015,07,18,12,53,29.00
2015,07,18,12,54,29.00
2015,07,18,12,55,29.10
2015,07,18,12,56,29.20
2015,07,18,12,57,29.20
2015,07,18,12,58,29.30
2015,07,18,12,59,29.30
2015,07,18,13,00,29.30
2015,07,18,13,01,29.30
2015,07,18,13,02,29.20
2015,07,18,13,03,29.20
2015,07,18,13,04,29.20
2015,07,18,13,05,29.30
2015,07,18,13,06,29.40
2015,07,18,13,07,29.50
2015,07,18,13,08,29.50
2015,07,18,13,09,29.50
2015,07,18,13,10,29.60
2015,07,18,13,11,29.70
2015,07,18,13,12,29.80
2015,07,18,13,13,29.90
2015,07,18,13,14,29.90
2015,07,18,13,15,29.90
2015,07,18,13,16,29.90
2015,07,18,13,17,29.90
2015,07,18,13,18,30.00
2015,07,18,13,19,30.00
2015,07,18,13,20,30.10
2015,07,18,13,21,30.10
2015,07,18,13,22,30.20
2015,07,18,13,23,30.30
2015,07,18,13,24,30.30
2015,07,18,13,25,30.20
2015,07,18,13,26,30.20
2015,07,18,13,27,30.10
2015,07,18,13,28,30.10
2015,07,18,13,29,30.10
2015,07,18,13,30,30.10
2015,07,18,13,31,30.10
2015,07,18,13,32,30.10
2015,07,18,13,33,30.10
2015,07,18,13,34,29.90
2015,07,18,13,35,29.90
2015,07,18,13,36,29.80
2015,07,18,13,37,29.70
2015,07,18,13,38,29.60
2015,07,18,13,39,29.60
2015,07,18,13,40,29.60
2015,07,18,13,41,29.60
2015,07,18,13,42,29.60
2015,07,18,13,43,29.60
2015,07,18,13,44,29.60
2015,07,18,13,45,29.60
2015,07,18,13,46,29.60
2015,07,18,13,47,29.70
2015,07,18,13,48,29.70
2015,07,18,13,49,29.80
2015,07,18,13,50,29.80
2015,07,18,13,51,29.90
2015,07,18,13,52,29.80
2015,07,18,13,53,29.70
2015,07,18,13,54,29.60
2015,07,18,13,55,29.50
2015,07,18,13,56,29.40
2015,07,18,13,57,29.20
2015,07,18,13,58,29.00
2015,07,18,13,59,29.00
2015,07,18,14,00,29.00
2015,07,18,14,01,28.90
2015,07,18,14,02,28.80
2015,07,18,14,03,28.70
2015,07,18,14,04,28.60
2015,07,18,14,05,28.60
2015,07,18,14,06,28.60
2015,07,18,14,07,28.60
2015,07,18,14,08,28.70
2015,07,18,14,09,28.80
2015,07,18,14,10,28.80
2015,07,18,14,11,28.90
2015,07,18,14,12,29.00
2015,07,18,14,13,29.10
2015,07,18,14,14,29.20
2015,07,18,14,15,29.30
2015,07,18,14,16,29.50
2015,07,18,14,17,29.60
2015,07,18,14,18,29.70
2015,07,18,14,19,29.70
2015,07,18,14,20,29.80
2015,07,18,14,21,29.80
2015,07,18,14,22,29.70
2015,07,18,14,23,29.60
2015,07,18,14,24,29.50
2015,07,18,14,25,29.40
2015,07,18,14,26,29.30
2015,07,18,14,27,29.30
2015,07,18,14,28,29.30
2015,07,18,14,29,29.30
2015,07,18,14,30,29.30
2015,07,18,14,31,29.30
2015,07,18,14,32,29.30
2015,07,18,14,33,29.30
2015,07,18,14,34,29.40
2015,07,18,14,35,29.40
2015,07,18,14,36,29.40
2015,07,18,14,37,29.40
2015,07,18,14,38,29.40
2015,07,18,14,39,29.50
2015,07,18,14,40,29.60
2015,07,18,14,41,29.70
2015,07,18,14,42,29.80
2015,07,18,14,43,29.90
2015,07,18,14,44,29.90
2015,07,18,14,45,29.90
2015,07,18,14,46,29.90
2015,07,18,14,47,29.90
2015,07,18,14,48,29.90
2015,07,18,14,49,29.80
2015,07,18,14,50,29.70
2015,07,18,14,51,29.60
2015,07,18,14,52,29.60
2015,07,18,14,53,29.60
2015,07,18,14,54,29.60
2015,07,18,14,55,29.60
2015,07,18,14,56,29.60
2015,07,18,14,57,29.60
2015,07,18,14,58,29.70
2015,07,18,14,59,29.60
2015,07,18,15,00,29.60
2015,07,18,15,01,29.70
2015,07,18,15,02,29.70
2015,07,18,15,03,29.80
2015,07,18,15,04,30.00
2015,07,18,15,05,30.20
2015,07,18,15,06,30.30
2015,07,18,15,07,30.50
2015,07,18,15,08,30.60
2015,07,18,15,09,30.80
2015,07,18,15,10,30.90
2015,07,18,15,11,31.00
2015,07,18,15,12,31.20
2015,07,18,15,13,31.30
2015,07,18,15,14,31.40
2015,07,18,15,15,31.50
2015,07,18,15,16,31.50
2015,07,18,15,17,31.50
2015,07,18,15,18,31.50
2015,07,18,15,19,31.50
2015,07,18,15,20,31.60
2015,07,18,15,21,31.50
2015,07,18,15,22,31.40
2015,07,18,15,23,31.30
2015,07,18,15,24,31.10
2015,07,18,15,25,30.90
2015,07,18,15,26,30.70
2015,07,18,15,27,30.60
2015,07,18,15,28,30.60
2015,07,18,15,29,30.70
2015,07,18,15,30,30.90
2015,07,18,15,31,31.00
2015,07,18,15,32,31.00
2015,07,18,15,33,31.10
2015,07,18,15,34,31.10
2015,07,18,15,35,31.10
2015,07,18,15,36,31.10
2015,07,18,15,37,31.10
2015,07,18,15,38,31.20
2015,07,18,15,39,31.30
2015,07,18,15,40,31.30
2015,07,18,15,41,31.30
2015,07,18,15,42,31.30
2015,07,18,15,43,31.40
2015,07,18,15,44,31.40
2015,07,18,15,45,31.30
2015,07,18,15,46,31.10
2015,07,18,15,47,31.00
2015,07,18,15,48,31.00
2015,07,18,15,49,31.00
2015,07,18,15,50,31.00
2015,07,18,15,51,31.00
2015,07,18,15,52,31.00
2015,07,18,15,53,31.10
2015,07,18,15,54,31.10
2015,07,18,15,55,31.20
2015,07,18,15,56,31.30
2015,07,18,15,57,31.30
2015,07,18,15,58,31.30
2015,07,18,15,59,31.20
2015,07,18,16,00,31.10
2015,07,18,16,01,31.10
2015,07,18,16,02,31.00
2015,07,18,16,03,30.90
2015,07,18,16,04,30.90
2015,07,18,16,05,30.90
2015,07,18,16,06,30.80
2015,07,18,16,07,30.80
2015,07,18,16,08,30.80
2015,07,18,16,09,30.80
2015,07,18,16,10,30.80
2015,07,18,16,11,30.80
2015,07,18,16,12,30.90
2015,07,18,16,13,31.00
2015,07,18,16,14,31.10
2015,07,18,16,15,31.10
2015,07,18,16,16,31.30
2015,07,18,16,17,31.30
2015,07,18,16,18,31.20
2015,07,18,16,19,31.10
2015,07,18,16,20,31.00
2015,07,18,16,21,30.90
2015,07,18,16,22,30.80
2015,07,18,16,23,30.80
2015,07,18,16,24,30.70
2015,07,18,16,25,30.70
2015,07,18,16,26,30.60
2015,07,18,16,27,30.60
2015,07,18,16,28,30.60
2015,07,18,16,29,30.70
2015,07,18,16,30,30.70
2015,07,18,16,31,30.80
2015,07,18,16,32,30.90
2015,07,18,16,33,30.90
2015,07,18,16,34,30.90
2015,07,18,16,35,30.90
2015,07,18,16,36,30.90
2015,07,18,16,37,30.90
2015,07,18,16,38,30.90
2015,07,18,16,39,30.80
2015,07,18,16,40,30.80
2015,07,18,16,41,30.80
2015,07,18,16,42,30.90
2015,07,18,16,43,30.90
2015,07,18,16,44,30.90
2015,07,18,16,45,31.00
2015,07,18,16,46,31.00
2015,07,18,16,47,31.00
2015,07,18,16,48,31.00
2015,07,18,16,49,31.00
2015,07,18,16,50,31.00
2015,07,18,16,51,31.00
2015,07,18,16,52,31.10
2015,07,18,16,53,31.10
2015,07,18,16,54,31.10
2015,07,18,16,55,31.10
2015,07,18,16,56,31.10
2015,07,18,16,57,31.10
2015,07,18,16,58,31.10
2015,07,18,16,59,31.10
2015,07,18,17,00,31.10
2015,07,18,17,01,31.10
2015,07,18,17,02,31.10
2015,07,18,17,03,31.10
2015,07,18,17,04,31.10
2015,07,18,17,05,31.10
2015,07,18,17,06,31.10
2015,07,18,17,07,31.00
2015,07,18,17,08,31.00
2015,07,18,17,09,31.00
2015,07,18,17,10,31.00
2015,07,18,17,11,30.90
2015,07,18,17,12,30.90
2015,07,18,17,13,30.90
2015,07,18,17,14,30.90
2015,07,18,17,15,30.90
2015,07,18,17,16,30.90
2015,07,18,17,17,30.90
2015,07,18,17,18,30.90
2015,07,18,17,19,31.00